GFSCGP_2pvu_pres_030.txt.gz
Presure
340 292 254 272 225 229 212 212 207 190 185 187 217 203 187 176 180 192 186 189 189 187 187 187 186 181 180 183 183 183 182 183 186 181 187 189 162 190 186 179 187 174 178 186
337 292 285 259 282 223 229 214 212 217 196 179 198 185 194 195 193 192 176 184 186 189 181 182 186 181 179 188 192 193 197 199 197 199 186 183 183 183 183 181 183 186 185 190
328 296 283 282 243 265 216 221 212 217 213 211 171 189 211 196 188 179 174 178 196 166 158 179 187 186 183 187 188 190 202 199 204 213 204 192 194 197 193 189 191 198 200 198
302 302 274 279 280 253 252 214 210 212 217 207 212 175 183 185 206 206 186 180 179 207 228 189 205 168 194 187 181 184 183 193 207 215 216 210 192 195 202 204 202 215 220 222
297 299 298 276 276 267 269 246 213 210 209 213 211 207 177 178 186 201 188 186 188 179 177 173 166 220 216 195 161 207 188 227 221 220 163 166 216 213 216 224 226 222 221 222
277 291 294 293 284 265 262 255 234 213 209 202 208 211 211 208 187 191 187 188 193 199 176 164 188 163 180 183 195 220 210 153 177 180 204 167 163 162 217 224 223 216 215 213
275 287 299 286 275 276 265 270 260 227 215 208 201 212 209 215 208 244 220 202 189 224 189 198 189 162 144 150 196 221 169 224 222 175 223 219 209 215 214 214 214 211 200 200
276 278 297 304 284 273 268 258 273 224 241 218 206 201 204 200 205 203 203 208 210 211 211 173 189 153 152 171 186 188 221 223 210 219 220 222 220 214 211 220 223 224 219 208
274 272 275 291 303 273 262 259 266 262 230 237 223 209 207 204 189 214 216 215 208 204 207 206 208 208 215 217 203 201 192 191 211 209 214 217 228 230 249 258 253 250 250 243
267 280 281 270 278 290 263 262 264 265 261 245 232 229 221 218 217 211 211 209 208 207 202 200 203 212 229 210 202 211 208 219 227 220 233 249 252 270 290 288 290 290 290 205
271 269 276 279 272 257 267 262 259 256 251 250 238 219 242 225 213 212 212 212 132 167 219 229 233 238 228 222 215 233 248 259 256 261 278 279 282 176 292 297 303 165 307 293
273 271 273 267 282 276 272 270 246 254 258 247 252 245 238 238 240 240 241 183 184 243 243 241 237 229 227 229 250 256 246 273 134 276 272 180 277 265 278 247 265 360 380 351
275 275 277 279 272 266 259 255 255 261 251 244 239 251 235 237 238 231 222 258 250 245 244 245 243 246 251 248 282 280 274 230 228 282 285 283 299 283 268 315 385 413 368 339
307 284 271 264 271 288 272 256 255 249 252 254 250 253 249 255 231 232 224 234 237 242 245 238 231 245 271 274 264 264 254 254 269 256 239 270 257 245 297 343 354 380 362 344
278 289 291 277 274 274 273 284 286 252 251 251 247 247 256 250 244 235 234 237 233 229 238 242 236 278 257 253 251 246 252 261 249 231 239 219 230 225 260 387 416 367 345 338
272 271 276 280 286 280 276 269 267 285 287 269 246 242 239 243 255 240 231 241 240 241 241 264 284 245 254 245 249 250 259 260 237 237 230 241 234 262 227 235 332 414 390 384
273 271 264 263 262 263 265 271 277 275 274 272 276 278 275 271 259 250 238 249 251 261 271 260 246 247 234 264 248 260 262 234 233 228 229 253 224 220 234 249 228 318 329 364
264 270 271 277 262 258 257 252 257 253 255 253 252 247 246 245 245 244 246 250 252 257 246 249 244 236 228 257 250 259 240 231 234 223 218 222 221 232 214 225 273 242 261 309
251 256 261 265 267 275 262 250 247 246 252 251 248 241 241 242 250 249 244 241 246 235 247 243 240 232 242 241 258 262 242 228 228 232 225 235 220 225 224 245 233 249 190 210
278 265 247 246 256 262 263 260 262 264 264 260 253 250 248 245 240 237 234 240 233 243 234 226 233 227 258 250 248 270 253 246 238 236 239 241 241 236 237 254 235 243 251 250
253 256 263 277 261 248 250 247 248 245 245 244 242 240 238 237 232 237 227 229 239 231 226 228 237 245 264 245 247 267 261 257 248 246 244 245 255 249 253 236 234 257 241 238
246 249 251 253 257 270 268 258 246 241 244 241 242 243 240 243 234 222 231 236 225 226 226 233 244 245 262 244 251 265 257 264 253 252 257 247 255 221 224 233 229 221 229 221
239 239 244 251 249 250 255 263 263 256 242 242 245 249 225 239 227 221 234 215 228 229 237 239 260 248 264 242 251 262 273 259 258 247 211 225 232 208 212 221 249 259 252 254
238 240 240 238 248 248 247 252 257 263 265 256 225 228 238 223 227 237 224 211 231 222 228 249 259 258 258 264 209 212 252 282 260 216 227 229 233 216 214 225 235 249 249 244
240 238 239 234 240 242 236 240 227 221 222 231 249 230 231 231 244 240 215 215 217 232 222 240 246 251 245 272 224 215 220 231 239 226 216 235 219 213 208 213 228 225 228 232
243 240 238 231 222 230 227 236 222 235 259 252 217 235 234 242 237 221 218 235 225 232 233 239 246 251 252 247 282 236 230 230 226 223 229 229 217 214 216 222 222 226 229 227

GFSCGP_2pvu_pres_033.txt.gz
Presure
291 324 374 285 238 245 232 221 206 200 195 175 171 185 174 171 177 192 190 184 184 181 169 172 179 179 179 178 173 174 177 175 175 172 172 179 181 176 178 181 184 188 190 192
302 316 346 326 260 249 237 230 207 210 198 202 184 180 168 191 169 178 182 178 150 175 175 177 176 179 180 180 178 178 181 185 182 181 182 186 186 187 190 197 199 200 211 210
293 332 337 326 322 260 257 233 225 209 203 199 186 176 173 192 192 188 178 174 177 175 172 178 179 176 186 186 183 177 173 173 189 193 186 194 189 183 186 197 198 199 208 211
333 299 340 327 316 265 253 248 232 220 209 213 199 207 206 174 166 166 169 179 190 190 177 165 158 179 187 189 188 186 189 190 177 192 196 193 197 195 206 181 202 231 232 229
318 358 351 323 314 307 254 256 244 230 214 106 213 196 178 175 179 205 206 199 177 182 186 187 180 184 175 176 191 187 187 195 189 165 163 194 226 173 212 207 228 158 178 180
310 303 340 316 311 305 296 239 243 237 223 216 215 212 192 188 185 178 178 183 183 215 193 174 193 182 186 176 184 177 182 174 177 163 203 163 207 180 181 188 179 221 234 228
283 279 302 315 305 312 298 279 243 246 231 221 215 213 211 152 160 196 193 184 181 170 179 200 215 210 208 206 199 193 191 180 163 173 194 178 154 176 189 190 168 211 207 199
289 293 290 305 308 312 288 285 266 259 249 222 213 212 214 219 221 220 216 206 214 214 189 174 174 178 180 187 187 187 192 192 194 186 154 167 177 180 163 190 212 181 198 218
286 279 295 304 302 306 289 281 276 279 256 243 217 211 215 214 215 211 215 219 217 200 204 235 200 203 199 188 190 183 188 239 152 226 213 211 221 216 232 227 226 222 242 257
270 278 277 283 307 314 306 282 279 278 271 247 260 225 217 211 210 213 212 214 209 209 211 210 230 215 207 206 206 201 231 218 213 219 213 222 204 236 247 242 266 257 277 292
274 282 277 277 292 295 305 300 299 271 267 261 259 236 240 225 220 212 213 211 212 207 208 223 202 213 218 213 225 219 190 205 198 220 225 215 201 244 257 284 293 312 326 306
278 272 273 273 269 276 295 286 276 276 272 262 267 265 242 234 227 225 216 209 206 203 219 209 211 210 214 204 214 221 208 221 222 259 252 260 256 298 272 268 269 253 259 240
265 284 279 278 269 270 261 277 283 263 262 259 262 266 264 258 234 225 220 217 220 217 217 167 188 210 218 220 220 221 233 261 256 253 251 288 240 266 274 253 275 259 247 264
285 269 270 272 276 266 256 254 259 274 261 253 255 250 250 252 251 241 224 218 214 211 226 227 227 222 235 255 249 258 262 261 252 267 275 263 252 263 250 258 244 233 230 271
297 275 271 276 291 290 296 257 260 253 255 270 256 254 246 242 246 247 246 243 239 237 235 239 247 244 240 217 247 240 240 244 265 265 253 266 267 243 239 229 236 240 254 217
294 319 276 267 268 263 259 283 293 256 248 248 252 246 240 249 245 241 239 243 244 243 265 254 259 251 243 245 268 274 268 261 256 238 269 287 242 240 249 244 243 229 227 272
280 279 292 301 277 267 266 274 271 283 258 247 242 243 249 251 245 242 243 237 245 250 251 243 248 248 250 278 262 249 246 250 237 258 275 247 243 229 242 231 254 254 253 254
274 275 271 275 278 281 285 277 273 259 273 278 274 250 243 241 242 245 246 245 240 246 245 239 239 258 277 251 242 239 240 256 255 269 269 245 242 229 239 247 238 249 265 252
262 267 273 268 260 262 258 263 263 271 269 270 272 276 276 269 271 275 265 261 253 248 247 249 252 262 247 247 236 230 252 275 244 269 261 251 238 250 238 260 261 242 224 223
257 255 258 261 272 266 254 253 252 244 246 247 248 250 252 253 247 244 246 245 245 239 240 252 250 238 239 235 247 256 271 266 243 263 273 261 245 257 250 256 226 236 224 215
267 275 260 250 254 262 266 270 249 244 247 248 245 244 243 241 240 240 240 234 239 244 244 244 235 241 230 229 239 260 286 241 253 267 263 269 252 260 253 227 228 221 239 264
253 254 260 271 268 242 251 260 263 259 254 257 241 241 245 247 246 249 251 245 240 234 241 233 242 223 228 254 246 262 284 247 258 264 239 245 265 243 229 238 208 224 234 243
248 251 250 252 259 267 269 245 248 253 253 254 250 249 249 246 243 238 234 231 233 241 228 240 218 222 245 252 258 250 271 229 245 271 281 234 219 227 227 220 219 205 214 229
250 244 247 249 251 251 257 266 271 249 245 246 249 243 244 243 238 237 231 238 235 231 235 216 220 218 221 247 235 255 252 251 232 219 224 226 237 223 237 225 214 224 222 230
253 250 245 241 242 247 255 249 254 268 264 252 242 242 243 242 241 239 236 225 227 226 232 210 214 234 240 246 250 249 250 272 247 230 226 198 227 220 245 221 217 214 218 210
270 246 250 245 244 242 240 250 247 247 258 267 265 250 240 247 250 230 241 226 222 244 216 216 232 233 237 239 246 253 258 240 294 249 219 236 205 196 240 230 211 211 210 214

GFSCGP_2pvu_pres_036.txt.gz
Presure
299 305 302 316 306 289 237 226 230 201 209 189 191 209 161 193 188 176 174 187 176 139 168 143 158 161 159 155 160 165 163 161 167 170 172 173 179 180 173 178 166 173 187 187
282 287 323 313 346 311 281 237 231 229 216 204 194 180 177 172 157 189 188 177 182 178 157 187 179 175 173 171 168 168 168 170 172 180 182 183 182 185 187 189 181 175 177 192
266 282 294 330 313 348 278 274 236 235 224 215 200 200 179 168 206 180 161 188 185 190 186 172 163 167 177 187 186 183 179 181 179 182 177 182 180 160 183 187 160 181 195 197
284 271 314 298 332 371 352 269 266 241 224 224 207 200 208 193 169 163 159 158 196 176 185 186 184 189 187 175 144 151 181 187 189 181 180 182 179 185 193 150 192 202 172 166
350 314 268 283 288 369 362 280 254 255 236 229 226 211 201 202 194 184 170 166 157 154 185 180 177 167 191 191 194 191 195 185 176 179 184 183 182 171 192 157 180 192 178 193
295 328 311 285 310 304 356 361 269 265 254 232 226 225 212 205 200 196 196 181 172 170 169 164 164 173 183 187 185 168 172 186 187 189 193 190 192 186 191 194 189 194 164 191
294 276 338 331 320 303 349 348 342 264 263 251 229 226 220 220 190 200 195 195 196 186 169 158 159 158 160 188 179 187 188 182 181 180 183 196 198 192 158 196 217 194 193 173
294 311 302 362 333 309 325 327 330 296 270 260 253 232 226 215 219 216 198 189 192 197 195 179 196 184 170 171 182 184 195 194 175 174 201 175 177 229 210 182 190 239 221 227
294 296 296 296 320 316 325 334 331 318 281 266 259 251 233 219 221 222 219 204 200 193 191 190 199 182 181 178 178 174 178 171 169 183 190 196 190 198 204 201 190 189 213 217
278 280 290 285 305 310 316 309 329 318 310 285 263 245 255 237 222 220 222 223 220 210 209 200 193 194 195 192 189 186 195 204 206 209 209 207 216 205 207 225 218 219 212 181
276 273 279 288 293 261 295 303 321 321 305 287 269 260 243 247 239 225 205 221 223 221 217 215 205 201 206 211 214 218 218 230 232 211 203 203 230 221 220 215 214 234 270 259
276 277 276 273 275 298 297 303 307 314 296 297 269 266 254 250 221 236 233 221 214 215 218 218 221 222 220 217 215 218 220 211 216 242 224 218 213 223 220 225 253 269 247 266
258 263 264 274 276 273 280 290 304 293 302 282 287 273 258 252 246 224 222 232 242 252 219 213 211 211 208 207 213 214 222 240 213 192 223 207 224 229 225 260 255 251 254 263
262 279 269 271 273 260 263 268 285 291 286 295 274 283 279 271 250 241 232 230 233 224 221 214 212 213 215 218 232 229 218 207 215 160 227 228 229 258 258 276 271 248 248 251
277 274 271 270 268 276 277 257 257 272 283 277 289 291 277 265 265 259 255 254 225 222 220 218 219 224 226 227 226 225 219 225 225 221 248 255 258 282 274 258 244 242 271 251
288 274 273 276 272 280 271 286 256 257 259 272 281 270 257 266 266 262 265 268 259 260 244 224 223 221 218 221 222 226 221 224 240 263 259 278 273 264 252 243 285 271 250 234
283 287 297 307 272 268 269 294 276 252 251 253 254 270 246 253 259 257 257 251 251 249 247 250 246 234 231 230 237 261 257 261 251 276 275 266 255 248 263 275 265 251 246 250
270 285 284 293 318 272 275 269 281 256 245 253 249 245 259 261 265 244 251 241 236 239 241 244 246 249 252 249 252 257 254 270 274 258 255 250 262 264 260 268 277 248 255 257
267 267 281 280 294 274 266 259 266 264 275 276 265 257 254 252 256 256 254 247 245 248 250 249 245 246 246 248 252 246 272 254 244 245 256 290 280 249 265 277 266 258 259 241
261 263 262 275 265 274 280 287 278 281 270 258 279 262 252 245 243 242 243 242 242 241 238 239 243 249 244 238 260 266 249 242 240 240 295 274 258 267 270 277 267 257 255 234
282 262 257 256 264 271 263 257 260 258 265 271 263 267 270 258 253 251 245 239 235 237 238 267 257 251 250 249 256 244 239 237 276 239 277 254 268 269 248 251 261 218 208 217
266 274 278 253 247 253 268 264 251 253 253 253 256 258 257 260 262 268 272 270 263 252 248 243 238 238 244 247 231 237 229 257 265 253 267 239 249 283 283 251 235 235 234 221
255 258 259 268 268 257 245 253 264 268 248 254 245 244 244 247 244 242 243 245 243 234 235 236 236 246 237 235 235 225 231 256 262 250 273 204 228 227 230 232 237 205 236 221
253 253 251 253 252 262 268 260 245 254 265 264 247 246 248 242 244 242 239 236 234 237 240 246 240 235 241 238 221 224 242 248 259 265 243 284 244 225 226 237 233 221 197 228
261 254 256 249 248 248 252 256 265 262 247 252 258 259 259 261 260 258 260 259 250 241 240 234 232 240 226 222 220 216 242 249 250 256 264 254 289 251 243 238 236 214 232 239
267 271 257 255 251 242 243 248 250 249 263 269 252 248 249 254 248 248 248 247 242 238 235 230 239 227 236 221 215 235 236 238 240 249 202 277 256 263 262 246 240 236 234 233

GFSCGP_2pvu_pres_039.txt.gz
Presure
278 287 316 320 331 266 245 235 227 220 202 198 186 190 59 160 158 174 191 168 166 170 147 160 166 159 162 158 162 164 162 163 162 160 157 157 158 158 161 163 159 170 174 167
281 280 311 304 331 334 263 234 231 236 230 214 197 176 185 185 157 160 181 191 182 173 169 169 158 157 162 163 161 164 165 160 160 161 164 167 166 153 158 170 169 162 169 183
282 269 283 300 307 335 325 284 239 233 237 220 222 199 189 170 189 161 162 189 179 193 177 174 157 156 162 166 150 158 160 165 166 168 167 171 172 168 172 175 169 191 160 188
277 297 302 283 303 313 333 321 281 253 231 238 228 219 204 192 170 189 186 157 155 186 172 178 180 170 167 169 167 166 168 167 149 165 158 171 170 185 180 175 195 194 195 155
277 276 284 305 287 301 328 287 333 269 251 237 241 233 216 224 190 190 179 181 181 191 155 165 173 188 179 176 176 170 174 181 185 187 186 185 186 161 182 194 181 167 172 183
276 293 275 294 298 315 319 331 299 321 278 257 250 241 234 227 224 190 194 183 177 189 167 157 151 151 187 174 176 187 187 181 180 180 190 178 171 176 191 200 198 144 182 198
269 286 278 274 316 290 305 331 368 377 279 266 263 264 232 228 231 227 204 199 189 186 179 161 163 168 179 178 182 159 156 153 157 159 192 179 160 170 177 186 190 185 184 171
338 279 286 315 322 312 253 280 313 328 376 264 257 264 259 245 222 226 224 226 204 195 190 190 187 172 159 161 165 164 167 169 167 162 160 185 177 174 186 175 180 179 188 194
321 321 314 306 325 314 314 307 270 299 365 364 339 272 264 255 249 247 226 225 225 205 195 198 197 193 186 180 178 178 179 179 180 182 172 170 169 190 178 184 202 191 198 209
305 312 306 325 311 271 145 319 325 340 333 352 350 291 281 268 260 254 252 238 229 223 218 201 198 194 199 193 189 184 185 186 187 188 189 186 186 192 179 198 200 210 212 236
277 300 294 297 292 295 195 316 310 310 335 339 338 332 281 267 256 246 248 250 247 237 227 219 212 204 198 198 195 193 189 188 190 183 190 191 200 193 198 202 225 223 209 230
269 275 272 275 294 290 287 283 204 302 322 324 333 329 310 266 264 249 238 241 245 244 237 224 220 217 216 216 212 208 202 199 198 196 201 164 202 199 223 253 221 237 237 155
270 267 276 273 264 270 277 285 292 295 300 308 325 320 311 298 264 261 258 250 239 238 240 240 240 231 226 226 223 222 225 227 230 228 228 234 227 224 221 233 240 242 225 224
267 268 265 262 270 277 280 285 296 311 292 296 309 317 303 294 282 276 268 256 250 247 242 237 238 238 239 81 234 232 228 223 226 235 225 235 217 235 242 219 237 225 233 250
273 271 260 263 277 272 265 264 271 272 288 293 292 301 299 295 277 270 265 262 259 250 242 237 236 233 231 231 233 231 220 245 238 231 233 239 236 230 222 228 233 236 269 285
283 283 269 278 272 280 281 257 262 260 270 273 297 294 292 289 292 265 261 258 253 248 246 238 234 233 237 236 224 248 238 226 225 222 221 217 220 229 231 237 255 290 278 255
283 290 289 290 278 271 265 272 276 255 260 263 268 287 287 293 290 288 261 255 249 245 242 238 236 237 229 228 234 218 220 222 219 221 220 225 233 237 254 274 285 263 253 280
270 276 283 282 287 296 285 274 269 283 278 259 264 269 273 279 278 285 279 276 263 260 251 254 239 240 229 225 225 225 238 247 246 241 243 249 263 261 279 274 254 265 276 264
271 266 269 282 275 284 301 310 265 272 280 263 260 255 268 267 271 268 261 259 260 261 250 245 258 260 257 255 251 249 246 246 243 248 256 255 273 274 264 251 301 267 272 281
277 269 261 271 274 275 291 308 271 264 271 264 262 252 255 256 261 266 254 254 256 258 256 260 250 240 238 238 241 237 238 251 253 245 259 271 256 252 287 279 271 276 265 248
286 276 262 258 272 269 279 286 271 260 259 270 259 253 248 246 252 248 265 270 269 265 261 245 246 241 239 242 248 247 245 186 251 258 259 248 244 272 292 252 246 294 285 229
266 274 282 259 256 267 271 268 278 276 283 255 255 268 274 270 271 257 256 251 251 249 252 251 246 247 247 240 240 233 250 246 250 244 247 238 238 275 270 262 206 235 230 248
258 262 262 281 269 259 255 271 266 269 267 267 268 271 254 260 264 265 253 246 241 240 237 236 239 234 242 231 244 247 239 246 241 235 236 231 259 273 266 292 249 232 231 237
263 250 257 254 260 275 270 254 253 272 261 257 259 259 259 260 257 256 265 269 263 241 241 243 242 237 246 249 232 237 247 239 230 228 223 256 257 262 280 266 285 259 250 243
274 270 257 252 251 249 252 263 269 259 250 267 264 253 252 254 252 251 251 253 256 257 253 250 247 247 234 235 229 247 240 231 227 224 226 245 245 248 251 271 293 266 264 259
256 265 272 263 254 255 248 253 252 254 265 268 256 257 271 252 248 243 243 242 240 239 236 234 235 234 228 242 243 234 234 231 227 220 234 235 235 236 246 248 269 299 276 276

GFSCGP_2pvu_pres_045.txt.gz
Presure
271 286 311 292 306 339 379 326 294 210 210 217 188 187 182 174 215 168 159 150 182 164 171 171 164 160 158 161 151 149 151 151 150 153 153 155 153 162 165 143 145 150 155 160
287 282 294 289 293 319 359 287 305 237 209 209 208 179 183 185 147 200 181 159 176 188 168 174 166 170 161 166 142 137 133 143 151 153 159 157 153 152 152 153 154 159 161 160
291 284 290 323 299 307 340 350 286 273 217 209 203 204 184 190 195 183 203 196 166 178 177 174 166 168 169 171 163 161 164 163 161 163 161 161 162 160 161 163 165 167 164 158
290 283 278 291 284 297 316 348 280 313 246 215 213 197 189 191 190 166 197 189 202 162 186 177 177 164 164 161 158 158 164 168 166 157 155 150 158 160 160 152 153 160 161 142
294 286 282 289 305 290 298 334 343 284 265 235 226 215 201 194 195 169 151 188 176 156 159 192 183 181 171 167 165 166 168 166 154 159 163 164 167 168 164 160 167 159 159 167
281 293 282 287 283 320 285 308 338 281 342 247 240 232 219 212 197 206 202 191 180 176 178 156 156 194 187 179 176 172 173 171 173 166 163 166 169 175 167 167 170 172 175 179
246 285 295 278 281 297 309 286 321 343 320 326 248 244 222 225 215 209 198 200 194 186 168 185 197 187 153 166 160 174 177 170 178 176 170 175 177 168 159 170 160 158 160 153
290 280 285 285 281 274 277 288 283 326 262 300 287 246 228 237 231 223 214 207 192 192 182 174 170 168 166 151 151 149 149 149 149 151 151 149 156 151 150 150 150 146 171 153
293 284 282 287 275 288 278 308 310 308 331 286 304 263 248 238 236 237 230 220 214 204 188 184 180 173 172 171 170 168 172 178 181 178 175 177 179 177 154 157 180 179 178 177
270 281 291 284 283 282 279 273 291 301 296 318 327 296 290 263 248 239 240 241 243 231 220 204 186 183 180 181 181 180 182 180 170 161 161 161 163 163 164 167 176 174 175 164
270 278 285 288 294 276 284 277 283 283 299 313 309 317 343 264 262 261 260 255 247 246 247 253 256 192 187 184 180 186 184 180 180 176 183 187 185 187 190 187 183 188 190 188
273 275 275 273 279 280 284 278 285 273 299 287 307 292 307 338 266 259 253 270 265 255 258 258 257 257 256 255 253 251 190 186 186 189 187 189 189 188 183 181 183 191 200 205
287 288 289 290 290 289 280 283 230 275 287 295 310 309 285 311 315 327 283 263 259 257 256 253 253 252 250 259 255 241 244 247 217 206 205 191 207 213 222 220 219 213 177 218
301 305 308 308 323 296 302 313 327 333 329 226 322 321 308 298 156 220 313 359 286 263 270 274 268 267 263 262 268 265 265 263 257 257 256 252 250 251 258 248 245 246 250 254
260 266 264 274 279 282 279 276 297 291 282 161 277 171 307 324 318 335 225 96 163 335 319 310 285 271 258 261 266 262 261 254 256 254 251 245 246 243 246 241 240 238 245 260
276 269 270 263 279 276 275 281 281 282 289 293 295 309 304 302 310 319 340 287 283 346 318 316 309 269 269 267 254 248 245 247 247 250 247 240 247 254 238 236 233 257 254 233
278 276 274 269 257 260 263 266 267 270 272 280 280 278 287 298 303 312 333 320 333 281 319 325 325 306 301 293 283 275 262 254 245 237 233 248 259 238 233 243 239 251 235 238
281 284 280 275 275 269 265 268 264 272 267 271 270 271 273 283 301 286 303 320 312 321 307 309 292 302 292 286 285 292 277 248 243 244 264 250 242 250 240 254 244 243 235 233
255 281 282 285 287 283 287 291 291 286 269 272 264 269 264 274 279 292 294 289 306 308 289 307 286 282 286 280 267 259 259 268 280 267 262 246 231 253 248 246 243 230 229 233
264 259 283 276 272 272 278 283 288 287 295 285 274 264 259 265 266 275 297 289 293 291 289 296 275 287 284 274 260 260 273 267 261 255 254 254 248 239 242 233 226 235 262 244
266 264 259 283 274 264 259 262 285 278 281 293 291 285 267 265 264 264 267 290 283 289 290 278 285 272 261 257 249 249 247 246 249 253 248 243 240 231 228 226 230 247 240 247
272 266 262 264 276 281 264 260 258 277 276 304 322 291 271 267 276 255 253 259 269 273 270 263 264 270 279 272 263 260 252 247 248 230 239 244 230 225 230 242 248 245 246 257
282 274 265 258 263 270 281 268 260 264 271 296 306 270 277 269 266 276 257 250 247 255 279 264 261 262 263 260 264 262 263 261 262 262 256 255 252 251 242 242 242 235 250 251
279 288 279 272 267 264 261 279 269 256 250 271 284 260 274 269 268 260 262 249 249 250 253 264 259 258 247 244 245 242 247 253 249 243 237 248 243 232 233 234 228 246 246 243
270 268 271 274 279 261 258 257 259 269 269 260 257 270 283 267 262 264 261 261 257 251 244 248 243 238 254 260 254 246 237 240 243 252 242 238 238 233 226 242 233 238 246 237
264 259 257 265 267 262 275 258 253 254 252 266 263 249 254 265 267 276 274 261 256 250 252 257 246 240 239 246 244 246 248 244 241 239 241 228 225 234 224 246 238 239 239 234

GFSCGP_2pvu_pres_048.txt.gz
Presure
281 290 273 267 293 268 290 364 350 289 302 268 254 234 207 217 185 175 167 169 179 151 191 181 170 173 165 127 142 157 160 151 142 142 147 144 152 149 147 152 156 161 157 157
289 296 282 291 308 324 295 325 357 322 279 278 282 239 209 188 199 193 169 156 175 204 155 114 153 172 173 165 159 133 129 151 159 153 155 149 154 149 150 144 151 155 151 154
280 287 285 275 281 308 293 296 372 334 293 288 272 246 217 217 209 198 178 178 168 202 194 177 181 169 179 169 163 167 163 161 165 141 148 149 148 140 140 151 149 157 158 145
285 292 281 283 309 294 310 303 324 373 325 285 289 245 226 212 212 208 197 154 164 175 158 163 178 174 176 173 177 168 164 158 169 169 159 161 158 159 165 161 163 161 162 157
296 303 305 292 282 297 318 279 313 365 289 304 300 262 229 215 207 211 204 191 175 169 178 216 160 158 180 175 177 171 169 159 166 154 155 166 158 161 161 156 157 156 151 157
284 295 294 298 263 274 315 302 269 332 354 314 305 308 244 219 216 201 191 202 189 185 164 165 216 176 157 153 156 184 179 170 164 161 164 159 158 156 158 160 161 161 164 167
290 291 290 284 285 292 283 306 296 319 348 349 289 311 279 233 219 210 200 210 205 200 156 187 166 185 195 189 153 167 172 179 177 170 169 169 166 166 163 163 167 168 168 168
282 293 290 284 283 277 266 300 285 288 304 317 361 294 280 272 235 213 209 205 212 205 203 179 179 174 168 165 172 152 161 164 168 176 177 173 170 174 175 171 175 172 150 151
288 291 291 286 281 306 281 277 286 316 288 306 333 342 328 283 283 237 221 214 214 209 207 203 190 184 181 173 182 168 163 155 184 153 150 150 150 156 183 145 149 149 153 157
288 294 293 286 291 283 267 284 272 285 295 284 313 333 333 265 308 284 240 240 229 213 214 212 204 176 188 186 180 172 174 171 167 166 167 181 150 165 163 150 184 179 173 167
279 274 281 283 294 291 281 288 282 268 266 301 291 304 326 302 304 284 270 243 249 249 237 225 223 222 208 195 181 186 182 180 177 177 170 163 158 164 165 163 171 179 177 166
282 277 268 279 278 284 285 288 281 279 286 270 284 261 286 316 293 257 281 270 249 245 246 249 249 247 239 232 204 197 174 179 181 180 145 175 174 173 173 179 179 172 172 189
279 282 285 283 258 261 269 268 271 250 282 278 283 292 275 294 311 283 322 302 275 267 267 260 253 253 254 258 251 247 248 205 177 163 170 182 181 182 181 184 173 176 178 171
277 271 269 269 271 277 274 275 278 270 278 294 296 291 268 282 290 310 320 327 319 272 274 262 264 270 275 269 269 267 263 270 280 217 215 184 252 253 225 214 226 215 222 250
285 278 278 271 276 276 298 314 309 305 306 330 315 331 162 314 294 304 311 314 325 328 299 279 270 270 269 268 271 271 272 272 271 273 264 264 256 275 261 272 267 256 252 248
266 276 302 298 294 287 288 281 281 285 289 291 297 302 292 305 318 319 326 341 299 310 318 328 335 306 284 289 265 263 261 260 253 254 253 245 250 254 259 250 226 234 243 243
284 282 270 261 261 263 269 272 275 275 271 273 286 279 293 300 299 304 307 307 318 312 310 303 308 319 341 234 256 277 262 263 256 246 251 255 256 254 242 238 236 236 232 231
265 282 280 277 268 268 263 265 269 264 261 279 274 275 282 282 286 292 300 304 300 313 332 339 327 289 292 313 329 306 305 299 298 287 276 252 253 277 263 268 260 258 250 251
260 260 275 275 285 277 270 262 259 263 265 267 262 271 270 273 275 277 279 296 307 298 317 325 329 318 307 273 274 317 308 298 308 277 272 266 258 242 234 249 266 264 263 254
265 263 261 258 279 282 280 282 283 278 286 288 269 270 263 275 266 267 279 282 282 296 291 302 315 303 325 303 296 309 294 308 290 286 290 285 276 251 259 256 245 238 237 230
271 270 267 266 261 285 277 272 272 269 274 285 288 285 295 279 272 268 264 259 272 279 296 291 298 305 286 303 286 275 285 277 279 264 257 254 244 246 253 237 240 240 248 237
274 273 269 268 269 263 283 279 268 262 255 273 278 279 287 289 278 269 260 261 262 256 281 287 286 282 293 289 280 287 280 276 276 272 265 257 253 246 235 237 247 247 229 239
285 285 278 274 270 268 259 268 288 272 262 255 277 272 295 306 292 274 263 277 269 255 248 265 282 277 288 288 284 258 270 263 254 257 256 244 237 234 236 233 247 247 225 248
275 284 274 271 276 268 262 256 257 277 271 260 253 270 301 311 307 266 266 271 275 269 261 253 250 268 258 260 271 274 274 255 257 243 237 237 247 247 244 244 247 246 226 238
272 267 266 271 286 284 274 271 264 262 268 274 263 249 280 273 261 256 262 258 265 266 263 251 258 250 263 270 259 258 261 262 268 265 263 253 249 251 249 234 225 234 241 228
265 253 250 258 256 264 272 277 277 259 258 261 264 271 258 267 272 276 265 251 260 256 253 261 254 246 245 244 248 244 251 246 244 245 243 243 237 229 227 229 245 238 233 226

GFSCGP_2pvu_pres_051.txt.gz
Presure
323 308 273 281 281 272 265 253 239 236 221 200 205 207 229 228 212 200 211 190 204 181 170 162 166 174 166 160 174 136 165 151 147 150 160 150 153 151 143 143 143 142 138 153
313 311 280 307 271 268 267 264 257 252 236 226 212 207 213 217 234 217 207 214 192 179 184 183 155 163 167 184 177 184 155 171 153 156 156 149 148 152 154 151 151 150 151 155
301 317 297 266 273 275 265 267 263 256 258 245 235 222 234 239 240 236 210 208 217 192 182 135 138 159 127 141 184 179 160 157 171 158 142 151 155 145 148 145 130 149 125 133
311 307 292 299 270 275 268 265 266 263 262 261 269 278 312 272 262 262 220 213 237 212 192 180 163 156 127 158 161 158 185 189 171 168 160 161 162 161 159 161 161 160 161 162
299 301 292 282 277 283 278 302 273 296 274 270 269 269 256 245 272 257 225 252 245 217 207 191 141 158 194 158 154 159 152 127 187 173 164 169 166 164 161 156 155 151 152 167
286 289 285 287 304 293 257 311 272 322 275 269 269 273 253 290 270 254 257 246 246 236 207 169 181 176 179 171 166 166 188 185 191 145 179 167 168 170 167 164 165 165 158 158
289 293 292 291 292 291 274 270 287 326 288 271 333 353 271 290 290 301 248 249 242 241 228 199 208 146 146 165 194 176 169 175 175 192 178 179 167 169 171 169 168 168 167 156
278 288 297 297 291 295 284 269 293 324 313 284 298 387 258 289 284 284 293 245 243 251 243 208 207 200 192 188 158 172 176 174 199 157 153 149 144 179 178 177 166 176 175 173
291 293 294 308 303 289 292 287 261 276 314 298 280 350 385 312 294 288 289 288 246 243 237 228 201 211 199 189 150 169 157 176 170 194 198 185 167 154 177 179 173 150 162 156
277 275 285 288 287 282 279 275 292 278 276 301 284 277 335 366 301 293 289 287 289 252 242 236 223 220 211 192 196 192 172 162 179 163 157 162 178 177 160 157 159 149 165 179
290 276 281 281 283 279 282 283 286 285 261 280 282 267 281 332 339 301 286 287 286 290 268 235 230 223 217 224 206 192 193 183 164 167 168 162 162 195 201 172 175 188 185 174
288 284 276 272 271 290 291 288 288 286 273 276 271 275 291 266 300 326 331 262 298 286 285 287 238 234 224 226 219 215 219 189 186 147 147 179 147 160 167 166 165 167 159 168
277 276 271 273 267 262 265 266 275 280 282 288 276 244 265 273 285 281 316 332 303 280 282 281 282 280 231 228 228 226 219 164 191 186 192 191 189 186 181 176 169 174 182 170
274 279 264 278 272 271 265 268 265 267 267 277 235 274 248 270 283 291 271 292 316 330 291 281 281 284 294 280 259 244 244 248 252 237 233 204 197 194 193 186 185 182 154 175
278 275 266 262 270 263 274 278 276 273 266 264 277 277 257 276 278 295 291 273 295 301 326 331 337 275 275 298 287 274 265 260 260 258 259 260 262 266 259 270 279 279 257 193
295 290 288 287 280 281 273 273 299 315 321 321 308 325 314 324 337 335 336 299 299 302 302 308 327 330 278 284 293 286 291 287 283 280 282 275 275 276 273 272 264 247 248 256
278 275 290 305 304 306 302 292 289 286 284 293 289 282 296 302 310 308 307 309 118 291 320 287 304 316 322 345 363 298 255 180 263 275 271 269 263 262 258 258 259 244 236 238
270 284 277 271 267 261 259 261 266 269 275 277 275 274 278 283 281 286 290 296 297 307 313 310 312 289 291 311 324 338 362 342 348 330 304 280 276 285 268 247 248 251 250 247
261 257 257 274 277 276 270 269 277 272 273 272 260 264 270 279 271 273 277 284 285 300 308 306 312 315 340 279 281 282 317 301 304 337 328 316 327 328 315 306 293 278 266 266
270 264 262 262 261 269 279 283 281 275 273 265 265 272 267 268 264 270 278 273 273 277 281 293 305 302 298 317 319 329 333 326 289 275 283 298 292 297 299 293 288 286 275 246
271 272 271 268 266 268 262 277 280 286 279 278 284 283 287 286 274 267 273 260 267 265 273 271 279 297 294 298 304 305 309 315 298 304 298 267 258 268 282 267 265 259 256 251
274 268 273 268 270 271 265 261 257 276 275 271 272 268 275 287 288 286 294 283 275 265 265 256 267 277 286 291 284 304 288 303 289 285 282 280 289 284 275 271 266 255 254 235
280 278 279 280 277 276 272 264 261 260 281 276 266 263 258 273 279 273 281 289 276 273 267 253 256 259 274 276 280 274 290 287 299 273 260 265 263 260 254 245 251 263 259 242
272 265 269 273 278 278 272 269 267 260 261 265 284 274 261 258 276 277 305 301 286 276 266 264 278 253 246 265 269 277 280 270 270 263 271 277 266 274 271 251 250 241 234 226
268 267 267 269 269 270 276 275 269 267 263 260 260 275 273 262 256 277 316 315 291 271 266 270 279 258 263 250 257 270 257 265 272 275 259 260 259 252 242 250 237 243 245 228
267 262 260 256 264 265 265 261 264 274 268 258 256 257 260 269 267 261 274 273 265 260 269 260 269 272 266 253 259 255 262 268 257 262 264 271 268 253 249 248 245 245 245 246